| time (UTC) | temp F | wind direction | speed knots | gust knots | rain 1hr in | rain 24hr in | rain mn in | humidity % | barometer mb |
| 20260507090716 | 37 | 0.0 | 0.0 | 0.00 | 0.02 | 0.00 | 87 | 1018.9 | |
| 20260507085717 | 38 | 0.0 | 0.0 | 0.00 | 0.02 | 0.00 | 87 | 1018.8 | |
| 20260507084737 | 38 | 315 | 0.9 | 0.9 | 0.00 | 0.02 | 0.00 | 87 | 1018.7 |
| 20260507083716 | 38 | 315 | 1.7 | 2.6 | 0.00 | 0.02 | 0.00 | 87 | 1018.7 |
| 20260507082716 | 38 | 0.0 | 0.0 | 0.00 | 0.02 | 0.00 | 87 | 1018.6 | |
| 20260507081717 | 38 | 0.0 | 0.0 | 0.00 | 0.02 | 0.00 | 87 | 1018.7 | |
| 20260507080717 | 38 | 0.0 | 0.0 | 0.00 | 0.02 | 0.00 | 87 | 1018.4 | |
| 20260507075716 | 38 | 0.0 | 0.0 | 0.00 | 0.02 | 0.02 | 86 | 1018.4 | |
| 20260507074717 | 39 | 315 | 0.0 | 0.9 | 0.00 | 0.02 | 0.02 | 86 | 1018.4 |
| 20260507073757 | 39 | 315 | 0.9 | 1.7 | 0.00 | 0.02 | 0.02 | 86 | 1018.4 |
| 20260507072716 | 39 | 0.0 | 0.0 | 0.00 | 0.02 | 0.02 | 86 | 1018.4 | |
| 20260507071717 | 39 | 0.0 | 0.0 | 0.00 | 0.02 | 0.02 | 85 | 1018.0 | |
| 20260507070716 | 39 | 0.0 | 0.0 | 0.00 | 0.02 | 0.02 | 84 | 1018.0 | |
| 20260507065736 | 40 | 0.0 | 0.0 | 0.00 | 0.02 | 0.02 | 84 | 1018.0 | |
| 20260507064758 | 40 | 0.0 | 0.0 | 0.00 | 0.02 | 0.02 | 82 | 1018.0 | |
| 20260507063718 | 41 | 0.0 | 0.0 | 0.00 | 0.02 | 0.02 | 80 | 1018.0 | |
| 20260507062716 | 41 | 0.0 | 0.0 | 0.00 | 0.02 | 0.02 | 79 | 1017.9 | |
| 20260507061717 | 41 | 315 | 1.7 | 3.5 | 0.00 | 0.02 | 0.02 | 79 | 1017.7 |
| 20260507060717 | 42 | 0.0 | 0.0 | 0.00 | 0.02 | 0.02 | 79 | 1017.8 | |
| 20260507055716 | 41 | 337 | 0.9 | 0.9 | 0.00 | 0.02 | 0.02 | 80 | 1017.7 |
| 20260507054736 | 41 | 0.0 | 0.0 | 0.00 | 0.02 | 0.02 | 81 | 1017.7 | |
| 20260507053717 | 42 | 0.0 | 0.0 | 0.00 | 0.02 | 0.02 | 80 | 1017.7 | |
| 20260507052716 | 42 | 0.0 | 0.0 | 0.00 | 0.02 | 0.02 | 77 | 1017.6 | |
| 20260507051717 | 43 | 0.0 | 0.0 | 0.00 | 0.02 | 0.02 | 77 | 1017.4 | |
| 20260507050717 | 43 | 0.0 | 0.0 | 0.00 | 0.02 | 0.02 | 77 | 1017.4 | |
| 20260507045716 | 43 | 324 | 2.6 | 3.5 | 0.00 | 0.02 | 0.02 | 77 | 1017.4 |
| 20260507044716 | 43 | 315 | 1.7 | 2.6 | 0.00 | 0.02 | 0.02 | 77 | 1017.4 |
| 20260507043737 | 43 | 330 | 0.9 | 1.7 | 0.00 | 0.02 | 0.02 | 77 | 1017.4 |
| 20260507042736 | 43 | 0.0 | 0.0 | 0.00 | 0.02 | 0.02 | 77 | 1017.0 | |
| 20260507041718 | 44 | 315 | 0.0 | 1.7 | 0.00 | 0.02 | 0.02 | 75 | 1017.0 |
| 20260507040738 | 44 | 0.0 | 0.0 | 0.00 | 0.02 | 0.02 | 76 | 1017.0 | |
| 20260507035716 | 44 | 315 | 0.9 | 1.7 | 0.00 | 0.02 | 0.02 | 75 | 1017.0 |
| 20260507034718 | 44 | 330 | 0.0 | 2.6 | 0.00 | 0.02 | 0.02 | 74 | 1017.0 |
| 20260507033716 | 44 | 339 | 1.7 | 1.7 | 0.00 | 0.02 | 0.02 | 74 | 1017.0 |
| 20260507032717 | 45 | 313 | 2.6 | 3.5 | 0.00 | 0.02 | 0.02 | 72 | 1016.8 |
| 20260507031716 | 45 | 343 | 1.7 | 3.5 | 0.00 | 0.02 | 0.02 | 71 | 1016.7 |
| 20260507030718 | 46 | 0.0 | 0.0 | 0.00 | 0.02 | 0.02 | 71 | 1016.7 | |
| 20260507025716 | 46 | 60 | 0.0 | 0.9 | 0.00 | 0.02 | 0.02 | 69 | 1016.7 |
| 20260507024717 | 47 | 0.0 | 0.0 | 0.00 | 0.02 | 0.02 | 69 | 1016.6 | |
| 20260507023716 | 47 | 0.0 | 0.0 | 0.00 | 0.02 | 0.02 | 69 | 1016.3 | |
| 20260507022716 | 47 | 337 | 0.9 | 1.7 | 0.00 | 0.02 | 0.02 | 68 | 1016.3 |
| 20260507021716 | 47 | 79 | 0.9 | 1.7 | 0.00 | 0.02 | 0.02 | 67 | 1016.3 |
| 20260507020716 | 47 | 315 | 0.0 | 0.9 | 0.00 | 0.02 | 0.02 | 68 | 1016.3 |
| 20260507015737 | 47 | 0.0 | 0.0 | 0.00 | 0.02 | 0.02 | 67 | 1016.3 | |
| 20260507014716 | 47 | 190 | 1.7 | 3.5 | 0.00 | 0.02 | 0.02 | 67 | 1016.3 |
| 20260507013717 | 48 | 125 | 2.6 | 3.5 | 0.00 | 0.02 | 0.02 | 67 | 1016.3 |
| 20260507012716 | 48 | 287 | 0.9 | 4.3 | 0.00 | 0.02 | 0.02 | 66 | 1016.3 |
| 20260507011717 | 48 | 98 | 1.7 | 1.7 | 0.00 | 0.02 | 0.02 | 66 | 1016.0 |
| 20260507010716 | 48 | 288 | 2.6 | 5.2 | 0.00 | 0.02 | 0.02 | 66 | 1016.1 |
| 20260507005738 | 48 | 0.0 | 2.6 | 0.00 | 0.02 | 0.02 | 66 | 1016.0 | |
| 20260507004716 | 48 | 45 | 0.0 | 1.7 | 0.00 | 0.02 | 0.02 | 65 | 1016.0 |
| 20260507003716 | 48 | 0.0 | 0.0 | 0.00 | 0.02 | 0.02 | 66 | 1016.0 | |
| 20260507002736 | 48 | 112 | 0.9 | 1.7 | 0.00 | 0.02 | 0.02 | 66 | 1016.0 |
| 20260507001737 | 48 | 112 | 0.0 | 1.7 | 0.00 | 0.02 | 0.02 | 67 | 1016.0 |
| 20260507000716 | 48 | 125 | 0.0 | 4.3 | 0.00 | 0.02 | 0.02 | 67 | 1016.0 |
| 20260506235716 | 48 | 195 | 2.6 | 3.5 | 0.00 | 0.02 | 0.02 | 66 | 1016.0 |
| 20260506234736 | 49 | 49 | 0.0 | 0.9 | 0.00 | 0.02 | 0.02 | 66 | 1015.7 |
| 20260506233738 | 49 | 118 | 1.7 | 3.5 | 0.00 | 0.02 | 0.02 | 66 | 1015.6 |
| 20260506232716 | 49 | 135 | 1.7 | 3.5 | 0.00 | 0.02 | 0.02 | 67 | 1015.6 |
| 20260506231817 | 49 | 302 | 1.7 | 4.3 | 0.00 | 0.02 | 0.02 | 67 | 1015.4 |
| 20260506230717 | 48 | 112 | 0.9 | 3.5 | 0.00 | 0.02 | 0.02 | 67 | 1015.4 |
| 20260506225717 | 48 | 155 | 1.7 | 3.5 | 0.00 | 0.02 | 0.02 | 68 | 1015.3 |
| 20260506224716 | 49 | 173 | 1.7 | 5.2 | 0.00 | 0.02 | 0.02 | 68 | 1015.3 |
| 20260506223716 | 48 | 79 | 0.0 | 0.9 | 0.00 | 0.02 | 0.02 | 68 | 1015.3 |
| 20260506222717 | 48 | 164 | 3.5 | 5.2 | 0.00 | 0.02 | 0.02 | 69 | 1015.3 |
| 20260506221736 | 48 | 143 | 3.5 | 5.2 | 0.00 | 0.02 | 0.02 | 68 | 1015.3 |
| 20260506220718 | 48 | 116 | 3.5 | 4.3 | 0.00 | 0.02 | 0.02 | 69 | 1015.3 |
| 20260506215716 | 48 | 127 | 2.6 | 4.3 | 0.00 | 0.02 | 0.02 | 69 | 1015.3 |
| 20260506214738 | 48 | 184 | 2.6 | 3.5 | 0.00 | 0.02 | 0.02 | 70 | 1015.3 |
| 20260506213716 | 48 | 356 | 1.7 | 2.6 | 0.00 | 0.02 | 0.02 | 71 | 1015.0 |
| 20260506212717 | 47 | 164 | 2.6 | 3.5 | 0.00 | 0.02 | 0.02 | 72 | 1015.0 |
| 20260506211716 | 47 | 250 | 0.9 | 2.6 | 0.00 | 0.02 | 0.02 | 72 | 1015.0 |
| 20260506210716 | 47 | 0.0 | 0.0 | 0.00 | 0.02 | 0.02 | 73 | 1015.0 | |
| 20260506205716 | 47 | 144 | 0.9 | 2.6 | 0.00 | 0.02 | 0.02 | 75 | 1014.7 |
| 20260506204717 | 46 | 352 | 0.0 | 1.7 | 0.00 | 0.02 | 0.02 | 76 | 1014.9 |
| 20260506203716 | 47 | 112 | 0.9 | 2.6 | 0.00 | 0.02 | 0.02 | 76 | 1014.6 |
| 20260506202716 | 46 | 108 | 0.9 | 2.6 | 0.00 | 0.02 | 0.02 | 76 | 1014.6 |
| 20260506201716 | 46 | 113 | 0.9 | 1.7 | 0.00 | 0.02 | 0.02 | 77 | 1014.6 |
| 20260506200738 | 46 | 112 | 1.7 | 3.5 | 0.00 | 0.02 | 0.02 | 79 | 1014.6 |
| 20260506195716 | 45 | 87 | 0.9 | 1.7 | 0.00 | 0.02 | 0.02 | 79 | 1014.6 |
| 20260506194716 | 44 | 168 | 0.9 | 2.6 | 0.00 | 0.02 | 0.02 | 81 | 1014.3 |
| 20260506193756 | 45 | 114 | 1.7 | 1.7 | 0.00 | 0.02 | 0.02 | 83 | 1014.3 |
| 20260506192717 | 44 | 0.0 | 0.0 | 0.00 | 0.02 | 0.02 | 85 | 1014.3 | |
| 20260506191716 | 43 | 112 | 0.0 | 1.7 | 0.00 | 0.03 | 0.02 | 86 | 1014.3 |
| 20260506190717 | 43 | 112 | 2.6 | 2.6 | 0.00 | 0.03 | 0.02 | 86 | 1014.0 |
| 20260506185717 | 43 | 112 | 0.0 | 1.7 | 0.00 | 0.03 | 0.02 | 87 | 1014.0 |
| 20260506184716 | 42 | 112 | 0.0 | 0.9 | 0.00 | 0.03 | 0.02 | 88 | 1014.0 |
| 20260506183716 | 42 | 345 | 0.9 | 2.6 | 0.00 | 0.03 | 0.02 | 88 | 1014.0 |
| 20260506182716 | 42 | 112 | 1.7 | 3.5 | 0.00 | 0.03 | 0.02 | 88 | 1014.0 |
| 20260506181716 | 41 | 112 | 0.0 | 0.9 | 0.00 | 0.03 | 0.02 | 89 | 1013.6 |
| 20260506180757 | 41 | 0.0 | 0.0 | 0.00 | 0.03 | 0.02 | 89 | 1013.6 | |
| 20260506175716 | 41 | 153 | 0.9 | 1.7 | 0.00 | 0.03 | 0.02 | 89 | 1013.6 |
| 20260506174716 | 41 | 0.0 | 0.0 | 0.01 | 0.04 | 0.02 | 89 | 1013.6 | |
| 20260506173716 | 41 | 0.0 | 0.0 | 0.01 | 0.04 | 0.02 | 89 | 1013.6 | |
| 20260506172716 | 41 | 0.0 | 0.0 | 0.02 | 0.04 | 0.02 | 89 | 1013.6 | |
| 20260506171716 | 40 | 0.0 | 0.0 | 0.02 | 0.04 | 0.02 | 90 | 1013.6 | |
| 20260506170717 | 40 | 0.0 | 0.0 | 0.02 | 0.04 | 0.02 | 90 | 1013.3 | |
| 20260506165837 | 40 | 0.0 | 0.0 | 0.02 | 0.04 | 0.02 | 91 | 1013.3 | |
| 20260506164716 | 40 | 0.0 | 0.0 | 0.01 | 0.03 | 0.01 | 91 | 1013.3 | |
| 20260506163716 | 39 | 0.0 | 0.9 | 0.01 | 0.03 | 0.01 | 92 | 1013.3 | |
| 20260506162717 | 39 | 0.0 | 0.0 | 0.00 | 0.02 | 0.00 | 92 | 1012.9 | |
| 20260506161717 | 38 | 0.0 | 0.0 | 0.00 | 0.02 | 0.00 | 92 | 1012.9 | |
| 20260506160736 | 38 | 0.0 | 0.0 | 0.00 | 0.02 | 0.00 | 92 | 1012.9 | |
| 20260506155716 | 38 | 0.0 | 0.0 | 0.00 | 0.02 | 0.00 | 92 | 1012.9 | |
| 20260506154716 | 37 | 0.0 | 0.0 | 0.00 | 0.02 | 0.00 | 92 | 1012.6 | |
| 20260506153716 | 37 | 0.0 | 0.0 | 0.00 | 0.02 | 0.00 | 92 | 1012.6 | |
| 20260506152716 | 36 | 0.0 | 0.0 | 0.00 | 0.02 | 0.00 | 92 | 1012.6 | |
| 20260506151716 | 36 | 0.0 | 0.0 | 0.00 | 0.02 | 0.00 | 92 | 1012.6 | |
| 20260506150716 | 35 | 0.0 | 0.0 | 0.00 | 0.02 | 0.00 | 92 | 1012.6 | |
| 20260506145736 | 35 | 0.0 | 0.0 | 0.00 | 0.02 | 0.00 | 92 | 1012.3 | |
| 20260506144718 | 35 | 0.0 | 0.0 | 0.00 | 0.02 | 0.00 | 92 | 1012.3 | |
| 20260506143716 | 35 | 0.0 | 0.0 | 0.00 | 0.02 | 0.00 | 92 | 1012.3 | |
| 20260506142716 | 35 | 0.0 | 0.0 | 0.00 | 0.02 | 0.00 | 92 | 1012.3 | |
| 20260506141716 | 35 | 0.0 | 0.0 | 0.00 | 0.02 | 0.00 | 92 | 1012.3 | |
| 20260506140716 | 35 | 0.0 | 0.0 | 0.00 | 0.02 | 0.00 | 92 | 1012.3 | |
| 20260506135737 | 35 | 0.0 | 0.0 | 0.00 | 0.02 | 0.00 | 92 | 1012.3 | |
| 20260506134717 | 35 | 0.0 | 0.0 | 0.00 | 0.02 | 0.00 | 92 | 1012.3 | |
| 20260506133717 | 34 | 0.0 | 0.0 | 0.00 | 0.02 | 0.00 | 92 | 1012.3 | |
| 20260506132717 | 34 | 0.0 | 0.0 | 0.00 | 0.02 | 0.00 | 91 | 1012.3 | |
| 20260506131716 | 34 | 0.0 | 0.0 | 0.00 | 0.02 | 0.00 | 91 | 1011.9 | |
| 20260506130716 | 34 | 0.0 | 0.0 | 0.00 | 0.02 | 0.00 | 91 | 1012.3 | |
| 20260506125738 | 34 | 0.0 | 0.0 | 0.00 | 0.02 | 0.00 | 91 | 1012.3 | |
| 20260506124716 | 34 | 0.0 | 0.0 | 0.00 | 0.02 | 0.00 | 91 | 1011.9 | |
| 20260506123716 | 34 | 0.0 | 0.0 | 0.00 | 0.02 | 0.00 | 91 | 1012.3 | |
| 20260506122716 | 34 | 0.0 | 0.0 | 0.00 | 0.02 | 0.00 | 91 | 1011.9 | |
| 20260506121717 | 34 | 0.0 | 0.0 | 0.00 | 0.02 | 0.00 | 91 | 1011.9 | |
| 20260506120717 | 34 | 0.0 | 0.0 | 0.00 | 0.03 | 0.00 | 91 | 1011.9 | |
| 20260506115736 | 35 | 0.0 | 0.0 | 0.00 | 0.03 | 0.00 | 91 | 1011.9 | |
| 20260506114717 | 35 | 0.0 | 0.0 | 0.00 | 0.04 | 0.00 | 90 | 1011.9 | |
| 20260506113756 | 35 | 0.0 | 0.0 | 0.00 | 0.04 | 0.00 | 90 | 1011.9 | |
| 20260506112757 | 34 | 0.0 | 0.0 | 0.00 | 0.04 | 0.00 | 90 | 1011.9 | |
| 20260506111716 | 35 | 0.0 | 0.0 | 0.00 | 0.04 | 0.00 | 90 | 1011.9 | |
| 20260506110717 | 35 | 0.0 | 0.0 | 0.00 | 0.04 | 0.00 | 90 | 1011.9 | |
| 20260506105716 | 35 | 0.0 | 0.0 | 0.00 | 0.04 | 0.00 | 90 | 1011.9 | |
| 20260506104717 | 35 | 0.0 | 0.0 | 0.00 | 0.04 | 0.00 | 90 | 1011.9 | |
| 20260506103716 | 35 | 337 | 0.9 | 0.9 | 0.00 | 0.04 | 0.00 | 90 | 1011.9 |
| 20260506102716 | 34 | 0.0 | 0.0 | 0.00 | 0.04 | 0.00 | 90 | 1011.9 | |
| 20260506101717 | 34 | 0.0 | 0.0 | 0.00 | 0.04 | 0.00 | 90 | 1011.9 | |
| 20260506100717 | 34 | 0.0 | 0.0 | 0.00 | 0.04 | 0.00 | 90 | 1011.6 | |
| 20260506095716 | 34 | 0.0 | 0.0 | 0.00 | 0.04 | 0.00 | 89 | 1011.6 | |
| 20260506094716 | 34 | 0.0 | 0.0 | 0.00 | 0.04 | 0.00 | 89 | 1011.6 | |
| 20260506093716 | 34 | 0.0 | 0.0 | 0.00 | 0.05 | 0.00 | 89 | 1011.6 | |
| 20260506092716 | 34 | 0.0 | 0.0 | 0.00 | 0.05 | 0.00 | 89 | 1011.9 | |
| 20260506091717 | 34 | 0.0 | 0.0 | 0.00 | 0.06 | 0.00 | 89 | 1011.6 |